W6OLF Weather Reports


Display with metric or nautical units.
time (UTC)temp
F
wind
direction
speed
MPH
gust
MPH
rain 1hr
in
rain 24hr
in
rain mn
in
humidity
%
barometer
mb
20260507024525 54 30 0.0 0.0 0.00 0.00 0.00 90 1019.3
20260507023025 54 18 0.0 0.0 0.00 0.00 0.00 89 1019.2
20260507021524 54 29 0.0 0.0 0.00 0.00 0.00 88 1019.2
20260507020042 54 69 0.0 0.0 0.00 0.00 0.00 88 1019.1
20260507014522 55 69 0.0 0.0 0.00 0.00 0.00 87 1019.1
20260507013024 55 69 0.0 0.0 0.00 0.00 0.00 87 1019.0
20260507011534 55 69 0.0 0.0 0.00 0.00 0.00 87 1019.1
20260507010024 55 69 0.0 0.0 0.00 0.00 0.00 85 1019.2
20260507004522 56 18 0.0 1.0 0.00 0.00 0.00 85 1019.1
20260507003022 56 321 0.0 0.0 0.00 0.00 0.00 83 1019.1
20260507001545 57 322 0.0 0.0 0.00 0.00 0.00 82 1019.1
20260507000023 57 304 0.0 0.0 0.00 0.00 0.00 82 1019.0
20260506234522 57 354 0.0 0.0 0.00 0.00 0.00 80 1019.0
20260506233022 57 313 0.0 0.0 0.00 0.00 0.00 81 1019.0
20260506231522 57 312 0.0 0.0 0.00 0.00 0.00 81 1019.1
20260506230021 56 1 0.0 0.0 0.00 0.00 0.00 82 1019.1
20260506224520 56 321 0.0 1.0 0.00 0.00 0.00 80 1019.2
20260506223027 57 194 0.0 0.0 0.00 0.00 0.00 80 1019.2
20260506221519 57 230 0.0 1.0 0.00 0.00 0.00 82 1019.2
20260506220017 56 50 0.0 0.0 0.00 0.00 0.00 81 1019.3
20260506214518 56 298 0.0 0.0 0.00 0.00 0.00 81 1019.3
20260506213018 56 33 0.0 5.0 0.00 0.00 0.00 81 1019.4
20260506211520 56 305 0.0 2.0 0.00 0.00 0.00 81 1019.4
20260506210031 56 231 0.0 0.0 0.00 0.00 0.00 80 1019.3
20260506204515 56 1 0.0 1.0 0.00 0.00 0.00 81 1019.3
20260506203013 56 350 0.0 0.0 0.00 0.00 0.00 82 1019.1
20260506201519 55 317 0.0 0.0 0.00 0.00 0.00 84 1019.2
20260506200010 55 11 0.0 2.0 0.00 0.00 0.00 83 1019.1
20260506194511 54 332 0.0 4.0 0.00 0.00 0.00 83 1019.0
20260506193020 54 322 0.0 5.0 0.00 0.00 0.00 83 1019.0
20260506191511 53 358 0.0 5.0 0.00 0.00 0.00 84 1019.0
20260506190011 53 216 0.0 5.0 0.00 0.00 0.00 85 1018.9
20260506184505 53 341 0.0 7.0 0.00 0.00 0.00 87 1018.9
20260506183004 53 302 0.0 4.0 0.00 0.00 0.00 89 1018.9
20260506181502 52 266 0.0 1.0 0.00 0.00 0.00 89 1018.8
20260506180002 52 359 0.0 1.0 0.00 0.00 0.00 90 1018.7
20260506174507 52 358 0.0 7.0 0.00 0.00 0.00 90 1018.7
20260506173007 52 301 0.0 1.0 0.00 0.00 0.00 92 1018.4
20260506171505 51 23 0.0 0.0 0.00 0.00 0.00 93 1018.5
20260506170005 51 264 0.0 1.0 0.00 0.00 0.00 93 1018.7
20260506164515 51 189 0.0 2.0 0.00 0.00 0.00 94 1018.6
20260506163006 50 46 0.0 4.0 0.00 0.00 0.00 94 1018.7
20260506161501 50 359 0.0 1.0 0.00 0.00 0.00 95 1018.4
20260506160127 51 325 0.0 2.0 0.00 0.00 0.00 95 1018.3
20260506154600 50 305 0.0 0.0 0.00 0.00 0.00 95 1017.9
20260506153058 50 14 0.0 1.0 0.00 0.00 0.00 95 1018.1
20260506151604 50 18 0.0 4.0 0.00 0.00 0.00 95 1018.2
20260506150107 50 7 0.0 0.0 0.00 0.00 0.00 96 1018.2
20260506144557 50 314 0.0 1.0 0.00 0.00 0.00 96 1018.4
20260506143057 50 317 0.0 4.0 0.00 0.00 0.00 96 1017.7
20260506141556 50 291 0.0 0.0 0.00 0.00 0.00 96 1018.0
20260506140055 50 292 0.0 0.0 0.00 0.00 0.00 95 1018.1
20260506134557 50 303 0.0 1.0 0.00 0.00 0.00 95 1017.8
20260506133109 50 323 0.0 1.0 0.00 0.00 0.00 95 1017.8
20260506131614 50 36 0.0 0.0 0.00 0.00 0.00 95 1017.7
20260506130054 50 1 0.0 1.0 0.00 0.00 0.00 95 1017.7
20260506124552 50 336 0.0 0.0 0.00 0.00 0.00 95 1017.4
20260506123050 50 351 0.0 0.0 0.00 0.00 0.00 95 1017.1
20260506121555 50 342 0.0 1.0 0.00 0.00 0.00 94 1017.2
20260506120059 50 300 0.0 0.0 0.00 0.00 0.00 94 1017.1
20260506114548 50 305 0.0 0.0 0.00 0.00 0.00 94 1017.0
20260506113046 50 67 0.0 2.0 0.00 0.00 0.00 94 1016.9
20260506111547 50 15 0.0 0.0 0.00 0.00 0.00 94 1016.9
20260506110054 51 37 0.0 4.0 0.00 0.00 0.00 94 1016.7
20260506104557 51 319 0.0 3.0 0.00 0.00 0.00 94 1016.7
20260506103047 51 65 0.0 2.0 0.00 0.00 0.00 94 1016.7
20260506101543 51 4 0.0 0.0 0.00 0.00 0.00 94 1016.6
20260506100052 51 38 0.0 0.0 0.00 0.00 0.00 94 1016.5
20260506094543 51 39 0.0 0.0 0.00 0.00 0.00 94 1016.5
20260506093041 51 39 0.0 0.0 0.00 0.00 0.00 93 1016.3
20260506091539 51 300 0.0 2.0 0.00 0.00 0.00 93 1016.2
20260506090041 50 314 0.0 1.0 0.00 0.00 0.00 93 1016.0
20260506084611 51 15 0.0 0.0 0.00 0.00 0.00 92 1016.0
20260506083039 51 305 0.0 0.0 0.00 0.00 0.00 92 1015.9
20260506081548 51 314 0.0 0.0 0.00 0.00 0.00 91 1015.8
20260506073031 52 305 0.0 0.0 0.00 0.00 0.00 90 1015.5
20260506071532 52 323 0.0 0.0 0.00 0.00 0.00 89 1015.4
20260506061525 54 295 0.0 0.0 0.00 0.00 0.00 87 1015.0
20260506044530 57 31 0.0 0.0 0.00 0.00 0.00 83 1014.3
20260506043026 58 31 0.0 0.0 0.00 0.00 0.00 83 1014.2
20260506041528 58 27 0.0 0.0 0.00 0.00 0.00 83 1014.1
20260506040032 59 27 0.0 0.0 0.00 0.00 0.00 82 1014.0
20260506034525 59 27 0.0 0.0 0.00 0.00 0.00 81 1013.9
20260506033025 60 27 0.0 0.0 0.00 0.00 0.00 80 1013.7
20260506031524 61 27 0.0 0.0 0.00 0.00 0.00 78 1013.6
20260506030023 62 345 0.0 0.0 0.00 0.00 0.00 76 1013.6